Garden Point, Australia
Current Conditions -  °F | °C
As of 10:00 PM on Thursday 30 Oct 2014 (Local Time) from YPDN Reporting Station
Few Clouds Few Clouds  
Wind Chill: 82°   Ceiling: Unl
Heat Index: 88°   Visibility: 6mi
Dew Point: 73°   Wind: 10mph
Humidity: 74%   Direction: 290°WNW
Pressure: 29.8"   Gusts: NA
Location:  11.4°S, 130.43°E
Report Text: YPDN 301300Z 29009KT 9999 FEW018 28/23 Q1009
Loading
Personal Weather Stations






























Interactive Weather Map
Tropical Storm Tracking
New forecast layout! Learn more

10-Day Weather Forecast

Advertisements
Track Severe Weather on mobile